FFT4578 KSAN-KPHX

Flight info

Callsign FFT4578
Flight time 1h 0m
Altitude 35000
Route ZZOOO4 HOGGZ HYDRR1
Aircraft A320/M-SDE3FGHIRWY/LB1

Departure

Time 2026-05-07 02:34
Airport San Diego International Airport (KSAN)

Arrival

Time 2026-05-07 03:35
Airport Phoenix Sky Harbor International Airport (KPHX)
Time Latitude Longitude Altitude Speed Heading
2026-05-07 02:01 32.73293 -117.20473 30 ft 0 kts 116°
2026-05-07 02:17 32.73297 -117.20481 25 ft 2 kts 115°
2026-05-07 02:18 32.73304 -117.20498 30 ft 2 kts 115°
2026-05-07 02:18 32.73311 -117.20516 29 ft 2 kts 114°
2026-05-07 02:18 32.73317 -117.20533 29 ft 2 kts 113°
2026-05-07 02:18 32.73323 -117.20551 24 ft 2 kts 106°
2026-05-07 02:19 32.73326 -117.20570 27 ft 2 kts 54°
2026-05-07 02:19 32.73322 -117.20577 26 ft 0 kts 48°
2026-05-07 02:23 32.73337 -117.20559 25 ft 6 kts 40°
2026-05-07 02:23 32.73400 -117.20544 23 ft 15 kts
2026-05-07 02:24 32.73515 -117.20515 20 ft 19 kts 32°
2026-05-07 02:24 32.73586 -117.20380 20 ft 19 kts 85°
2026-05-07 02:24 32.73564 -117.20246 24 ft 14 kts 104°
2026-05-07 02:24 32.73541 -117.20143 25 ft 12 kts 105°
2026-05-07 02:25 32.73499 -117.19976 28 ft 28 kts 105°
2026-05-07 02:25 32.73445 -117.19761 27 ft 27 kts 106°
2026-05-07 02:25 32.73392 -117.19543 27 ft 27 kts 108°
2026-05-07 02:25 32.73341 -117.19323 25 ft 29 kts 105°
2026-05-07 02:26 32.73293 -117.19133 25 ft 18 kts 108°
2026-05-07 02:26 32.73254 -117.18967 26 ft 23 kts 105°
2026-05-07 02:26 32.73212 -117.18795 28 ft 20 kts 106°
2026-05-07 02:26 32.73176 -117.18646 28 ft 18 kts 106°
2026-05-07 02:27 32.73140 -117.18501 30 ft 18 kts 106°
2026-05-07 02:27 32.73107 -117.18366 28 ft 16 kts 106°
2026-05-07 02:27 32.73091 -117.18298 27 ft 0 kts 107°
2026-05-07 02:29 32.73073 -117.18227 28 ft 27 kts 106°
2026-05-07 02:30 32.73037 -117.18083 23 ft 13 kts 104°
2026-05-07 02:30 32.73003 -117.17926 22 ft 24 kts 106°
2026-05-07 02:30 32.72960 -117.17771 21 ft 19 kts 108°
2026-05-07 02:30 32.72956 -117.17676 22 ft 0 kts 75°
2026-05-07 02:33 32.72969 -117.17639 23 ft 9 kts 60°
2026-05-07 02:33 32.73010 -117.17614 24 ft 9 kts 353°
2026-05-07 02:33 32.73039 -117.17663 23 ft 0 kts 288°
2026-05-07 02:33 32.73084 -117.17848 23 ft 60 kts 286°
2026-05-07 02:34 32.73258 -117.18561 27 ft 120 kts 286°
2026-05-07 02:34 32.73535 -117.19682 158 ft 154 kts 286°
2026-05-07 02:34 32.73786 -117.20963 743 ft 163 kts 281°
2026-05-07 02:34 32.73969 -117.22324 1325 ft 168 kts 279°
2026-05-07 02:35 32.74096 -117.23728 1909 ft 175 kts 278°
2026-05-07 02:35 32.74153 -117.25237 2296 ft 197 kts 273°
2026-05-07 02:35 32.74214 -117.26945 2704 ft 216 kts 278°
2026-05-07 02:35 32.74563 -117.28753 3196 ft 232 kts 292°
2026-05-07 02:36 32.75246 -117.30512 3830 ft 241 kts 297°
2026-05-07 02:36 32.75963 -117.32330 4605 ft 246 kts 289°
2026-05-07 02:36 32.75997 -117.34374 5375 ft 255 kts 252°
2026-05-07 02:36 32.74969 -117.36122 6094 ft 264 kts 215°
2026-05-07 02:37 32.73269 -117.36860 6832 ft 268 kts 179°
2026-05-07 02:37 32.71494 -117.36328 7550 ft 266 kts 143°
2026-05-07 02:37 32.70204 -117.34781 8309 ft 264 kts 122°
2026-05-07 02:37 32.69127 -117.33009 9117 ft 266 kts 121°
2026-05-07 02:38 32.68044 -117.31220 9944 ft 268 kts 121°
2026-05-07 02:38 32.66963 -117.29432 10669 ft 271 kts 121°
2026-05-07 02:38 32.65858 -117.27599 11400 ft 273 kts 121°
2026-05-07 02:38 32.64645 -117.25827 12125 ft 276 kts 123°
2026-05-07 02:39 32.63588 -117.23935 12844 ft 275 kts 112°
2026-05-07 02:39 32.62916 -117.21784 13124 ft 290 kts 97°
2026-05-07 02:39 32.62663 -117.19321 13284 ft 311 kts 92°
2026-05-07 02:39 32.62436 -117.16677 13459 ft 334 kts 92°
2026-05-07 02:40 32.62188 -117.13848 13672 ft 352 kts 93°
2026-05-07 02:40 32.62112 -117.10948 14175 ft 355 kts 82°
2026-05-07 02:40 32.62644 -117.08095 14743 ft 355 kts 68°
2026-05-07 02:40 32.63542 -117.05333 15336 ft 359 kts 66°
2026-05-07 02:41 32.64448 -117.02565 15923 ft 361 kts 67°
2026-05-07 02:41 32.65361 -116.99768 16517 ft 365 kts 66°
2026-05-07 02:41 32.66237 -116.96911 17102 ft 370 kts 72°
2026-05-07 02:41 32.66681 -116.93906 17672 ft 377 kts 83°
2026-05-07 02:42 32.66764 -116.90770 18257 ft 381 kts 85°
2026-05-07 02:42 32.66836 -116.87609 18782 ft 385 kts 85°
2026-05-07 02:42 32.66911 -116.84410 19303 ft 388 kts 85°
2026-05-07 02:42 32.66981 -116.81235 19821 ft 390 kts 85°
2026-05-07 02:43 32.67053 -116.77967 20345 ft 393 kts 85°
2026-05-07 02:43 32.67120 -116.74757 20837 ft 395 kts 85°
2026-05-07 02:43 32.67132 -116.71467 21329 ft 399 kts 86°
2026-05-07 02:43 32.67088 -116.68152 21814 ft 402 kts 87°
2026-05-07 02:44 32.67015 -116.64823 22292 ft 404 kts 88°
2026-05-07 02:44 32.66936 -116.61513 22732 ft 407 kts 87°
2026-05-07 02:44 32.66859 -116.58139 23178 ft 409 kts 87°
2026-05-07 02:44 32.66789 -116.54754 23660 ft 411 kts 87°
2026-05-07 02:45 32.66724 -116.51348 24004 ft 412 kts 87°
2026-05-07 02:45 32.66664 -116.47962 24357 ft 414 kts 87°
2026-05-07 02:45 32.66607 -116.44544 24713 ft 415 kts 87°
2026-05-07 02:45 32.66698 -116.41110 25075 ft 413 kts 80°
2026-05-07 02:46 32.67017 -116.37738 25417 ft 414 kts 80°
2026-05-07 02:46 32.67334 -116.34338 25771 ft 415 kts 80°
2026-05-07 02:46 32.67650 -116.30899 26115 ft 417 kts 80°
2026-05-07 02:46 32.67960 -116.27460 26476 ft 418 kts 80°
2026-05-07 02:47 32.68268 -116.24019 26826 ft 418 kts 80°
2026-05-07 02:47 32.68571 -116.20632 27203 ft 418 kts 80°
2026-05-07 02:47 32.68878 -116.17194 27536 ft 418 kts 80°
2026-05-07 02:47 32.69188 -116.13723 27841 ft 420 kts 80°
2026-05-07 02:48 32.69492 -116.10304 28127 ft 421 kts 80°
2026-05-07 02:48 32.69798 -116.06842 28434 ft 422 kts 80°
2026-05-07 02:48 32.70104 -116.03374 28706 ft 423 kts 80°
2026-05-07 02:48 32.70415 -115.99889 28950 ft 424 kts 80°
2026-05-07 02:49 32.70740 -115.96385 29231 ft 424 kts 80°
2026-05-07 02:49 32.71062 -115.92942 29648 ft 421 kts 80°
2026-05-07 02:49 32.71387 -115.89490 30105 ft 417 kts 80°
2026-05-07 02:49 32.71705 -115.86076 30438 ft 415 kts 79°
2026-05-07 02:50 32.72019 -115.82678 30741 ft 413 kts 79°
2026-05-07 02:50 32.72326 -115.79322 31020 ft 412 kts 79°
2026-05-07 02:50 32.72636 -115.75919 31311 ft 411 kts 79°
2026-05-07 02:50 32.72941 -115.72544 31602 ft 411 kts 79°
2026-05-07 02:51 32.73240 -115.69203 31922 ft 409 kts 79°
2026-05-07 02:51 32.73542 -115.65843 32239 ft 408 kts 79°
2026-05-07 02:51 32.73844 -115.62485 32562 ft 406 kts 79°
2026-05-07 02:51 32.74146 -115.59150 32844 ft 405 kts 79°
2026-05-07 02:52 32.74444 -115.55815 33123 ft 405 kts 79°
2026-05-07 02:52 32.74737 -115.52523 33400 ft 404 kts 79°
2026-05-07 02:52 32.74996 -115.49187 33672 ft 405 kts 81°
2026-05-07 02:52 32.75144 -115.45860 33944 ft 405 kts 83°
2026-05-07 02:53 32.75217 -115.42491 34169 ft 406 kts 84°
2026-05-07 02:53 32.75256 -115.39128 34366 ft 407 kts 84°
2026-05-07 02:53 32.75293 -115.35790 34535 ft 408 kts 84°
2026-05-07 02:53 32.75347 -115.32417 34721 ft 408 kts 81°
2026-05-07 02:54 32.76117 -115.29238 34678 ft 400 kts 66°
2026-05-07 02:54 32.76826 -115.26049 34885 ft 404 kts 81°
2026-05-07 02:54 32.76461 -115.19274 34986 ft 419 kts 93°
2026-05-07 02:55 32.75790 -115.12385 34984 ft 418 kts 89°
2026-05-07 02:55 32.75722 -115.05528 34981 ft 415 kts 84°
2026-05-07 02:56 32.75982 -114.98695 34977 ft 415 kts 83°
2026-05-07 02:56 32.76230 -114.91811 34976 ft 417 kts 84°
2026-05-07 02:57 32.76378 -114.84905 34969 ft 418 kts 84°
2026-05-07 02:57 32.76493 -114.78011 34974 ft 418 kts 84°
2026-05-07 02:58 32.76593 -114.72251 34979 ft 418 kts 84°
2026-05-07 02:58 32.76738 -114.64219 34979 ft 418 kts 84°
2026-05-07 02:59 32.76844 -114.58461 34978 ft 418 kts 84°
2026-05-07 02:59 32.76947 -114.51576 34977 ft 418 kts 85°
2026-05-07 03:00 32.77036 -114.44632 34967 ft 418 kts 85°
2026-05-07 03:00 32.77128 -114.37764 34959 ft 418 kts 85°
2026-05-07 03:01 32.77218 -114.30827 34899 ft 421 kts 86°
2026-05-07 03:01 32.77301 -114.23890 34895 ft 423 kts 86°
2026-05-07 03:02 32.77384 -114.16885 34896 ft 425 kts 86°
2026-05-07 03:02 32.77462 -114.09856 34905 ft 425 kts 86°
2026-05-07 03:03 32.77933 -114.02861 34899 ft 424 kts 82°
2026-05-07 03:03 32.78631 -113.95898 34910 ft 425 kts 80°
2026-05-07 03:04 32.79435 -113.88968 34734 ft 425 kts 80°
2026-05-07 03:04 32.79847 -113.85420 33670 ft 431 kts 80°
2026-05-07 03:04 32.80247 -113.81905 32571 ft 434 kts 80°
2026-05-07 03:05 32.80640 -113.78334 31509 ft 435 kts 80°
2026-05-07 03:05 32.81027 -113.74757 30556 ft 433 kts 79°
2026-05-07 03:05 32.81648 -113.71389 30002 ft 411 kts 70°
2026-05-07 03:05 32.82712 -113.68288 29055 ft 397 kts 61°
2026-05-07 03:06 32.84177 -113.65560 28359 ft 389 kts 52°
2026-05-07 03:06 32.85930 -113.63124 27839 ft 385 kts 49°
2026-05-07 03:06 32.87705 -113.60736 27302 ft 382 kts 49°
2026-05-07 03:06 32.89439 -113.58396 26786 ft 379 kts 49°
2026-05-07 03:07 32.91183 -113.56041 26252 ft 376 kts 49°
2026-05-07 03:07 32.92911 -113.53705 25748 ft 374 kts 49°
2026-05-07 03:07 32.94609 -113.51412 25220 ft 372 kts 49°
2026-05-07 03:07 32.96323 -113.49103 24725 ft 370 kts 49°
2026-05-07 03:08 32.98024 -113.46814 24213 ft 368 kts 49°
2026-05-07 03:08 32.99725 -113.44522 23707 ft 366 kts 49°
2026-05-07 03:08 33.01408 -113.42249 23160 ft 365 kts 49°
2026-05-07 03:08 33.03064 -113.40009 22639 ft 363 kts 49°
2026-05-07 03:09 33.04734 -113.37746 22139 ft 361 kts 49°
2026-05-07 03:09 33.06390 -113.35504 21740 ft 358 kts 49°
2026-05-07 03:09 33.08041 -113.33269 21570 ft 359 kts 49°
2026-05-07 03:09 33.09675 -113.31057 21344 ft 359 kts 49°
2026-05-07 03:10 33.11326 -113.28824 21103 ft 358 kts 49°
2026-05-07 03:10 33.12973 -113.26597 20875 ft 357 kts 49°
2026-05-07 03:10 33.14618 -113.24370 20644 ft 356 kts 49°
2026-05-07 03:10 33.16261 -113.22139 20397 ft 356 kts 49°
2026-05-07 03:11 33.17895 -113.19924 20182 ft 355 kts 49°
2026-05-07 03:11 33.19509 -113.17742 19945 ft 354 kts 49°
2026-05-07 03:11 33.21146 -113.15525 19709 ft 354 kts 49°
2026-05-07 03:11 33.22772 -113.13315 19479 ft 353 kts 49°
2026-05-07 03:12 33.24376 -113.11134 19253 ft 353 kts 49°
2026-05-07 03:12 33.25915 -113.08861 19036 ft 344 kts 57°
2026-05-07 03:12 33.26972 -113.06325 18804 ft 336 kts 71°
2026-05-07 03:12 33.27484 -113.03642 18648 ft 335 kts 83°
2026-05-07 03:13 33.27579 -113.00852 18471 ft 335 kts 87°
2026-05-07 03:13 33.27646 -112.98072 18234 ft 334 kts 87°
2026-05-07 03:13 33.27721 -112.95288 17972 ft 333 kts 87°
2026-05-07 03:13 33.27794 -112.92546 17733 ft 332 kts 87°
2026-05-07 03:14 33.27865 -112.89777 17494 ft 330 kts 87°
2026-05-07 03:14 33.27931 -112.87063 17258 ft 329 kts 87°
2026-05-07 03:14 33.28065 -112.81749 16879 ft 312 kts 85°
2026-05-07 03:15 33.28234 -112.79175 16629 ft 307 kts 83°
2026-05-07 03:15 33.28476 -112.76641 16353 ft 305 kts 82°
2026-05-07 03:15 33.28738 -112.74160 16069 ft 303 kts 81°
2026-05-07 03:15 33.29003 -112.71663 15776 ft 301 kts 82°
2026-05-07 03:16 33.29260 -112.69188 15488 ft 299 kts 82°
2026-05-07 03:16 33.29506 -112.66719 15197 ft 298 kts 82°
2026-05-07 03:16 33.29743 -112.64263 14904 ft 296 kts 82°
2026-05-07 03:16 33.29969 -112.61839 14623 ft 294 kts 82°
2026-05-07 03:17 33.30193 -112.59411 14336 ft 293 kts 82°
2026-05-07 03:17 33.30415 -112.56997 14051 ft 291 kts 82°
2026-05-07 03:17 33.30637 -112.54594 13764 ft 289 kts 82°
2026-05-07 03:17 33.30857 -112.52207 13460 ft 288 kts 82°
2026-05-07 03:18 33.31075 -112.49834 13174 ft 286 kts 82°
2026-05-07 03:18 33.31292 -112.47467 12899 ft 285 kts 82°
2026-05-07 03:18 33.31502 -112.45148 12627 ft 283 kts 82°
2026-05-07 03:18 33.31718 -112.42792 12353 ft 283 kts 82°
2026-05-07 03:19 33.31933 -112.40457 12081 ft 282 kts 82°
2026-05-07 03:19 33.32149 -112.38121 11806 ft 281 kts 82°
2026-05-07 03:19 33.32362 -112.35797 11536 ft 280 kts 82°
2026-05-07 03:19 33.32572 -112.33505 11268 ft 280 kts 82°
2026-05-07 03:20 33.32784 -112.31182 10991 ft 279 kts 82°
2026-05-07 03:20 33.32992 -112.28879 10720 ft 278 kts 82°
2026-05-07 03:20 33.33201 -112.26585 10449 ft 277 kts 82°
2026-05-07 03:20 33.33408 -112.24316 10181 ft 276 kts 82°
2026-05-07 03:21 33.33615 -112.22043 9914 ft 275 kts 82°
2026-05-07 03:21 33.33821 -112.19771 9626 ft 274 kts 82°
2026-05-07 03:21 33.34024 -112.17507 9406 ft 270 kts 82°
2026-05-07 03:21 33.34218 -112.15320 9303 ft 257 kts 82°
2026-05-07 03:22 33.34401 -112.13254 9206 ft 245 kts 82°
2026-05-07 03:22 33.34579 -112.11259 9103 ft 238 kts 82°
2026-05-07 03:22 33.34746 -112.09295 9002 ft 238 kts 85°
2026-05-07 03:22 33.34736 -112.07306 8761 ft 238 kts 89°
2026-05-07 03:23 33.34711 -112.05343 8501 ft 238 kts 89°
2026-05-07 03:23 33.34688 -112.03369 8252 ft 237 kts 89°
2026-05-07 03:23 33.34663 -112.01397 8001 ft 237 kts 89°
2026-05-07 03:23 33.34637 -111.99419 7749 ft 237 kts 89°
2026-05-07 03:24 33.34611 -111.97444 7499 ft 237 kts 89°
2026-05-07 03:24 33.34797 -111.95490 7128 ft 238 kts 76°
2026-05-07 03:24 33.34971 -111.93548 6964 ft 236 kts 89°
2026-05-07 03:24 33.34930 -111.91582 6887 ft 237 kts 90°
2026-05-07 03:25 33.34870 -111.89605 6865 ft 238 kts 90°
2026-05-07 03:25 33.34830 -111.87649 6820 ft 238 kts 89°
2026-05-07 03:25 33.34816 -111.85665 6771 ft 238 kts 88°
2026-05-07 03:25 33.34986 -111.83705 6721 ft 236 kts 70°
2026-05-07 03:26 33.35563 -111.81872 6671 ft 236 kts 67°
2026-05-07 03:26 33.36163 -111.80044 6622 ft 236 kts 67°
2026-05-07 03:26 33.36767 -111.78211 6577 ft 238 kts 67°
2026-05-07 03:26 33.37376 -111.76370 6522 ft 240 kts 67°
2026-05-07 03:27 33.37998 -111.74489 6254 ft 241 kts 67°
2026-05-07 03:27 33.38616 -111.72617 5878 ft 242 kts 67°
2026-05-07 03:27 33.39225 -111.70765 5509 ft 242 kts 67°
2026-05-07 03:27 33.39847 -111.68877 5142 ft 243 kts 67°
2026-05-07 03:28 33.40650 -111.67162 5000 ft 234 kts 41°
2026-05-07 03:28 33.42065 -111.66352 4880 ft 229 kts
2026-05-07 03:28 33.43588 -111.66724 4816 ft 226 kts 326°
2026-05-07 03:28 33.44552 -111.68152 4693 ft 223 kts 284°
2026-05-07 03:29 33.44464 -111.69968 4557 ft 224 kts 245°
2026-05-07 03:29 33.43695 -111.71568 4432 ft 217 kts 241°
2026-05-07 03:29 33.43085 -111.73142 4286 ft 207 kts 256°
2026-05-07 03:29 33.42883 -111.74823 4201 ft 199 kts 267°
2026-05-07 03:30 33.42849 -111.76419 4085 ft 186 kts 270°
2026-05-07 03:30 33.42847 -111.77930 3945 ft 177 kts 270°
2026-05-07 03:30 33.42849 -111.79334 3967 ft 158 kts 271°
2026-05-07 03:30 33.42852 -111.80630 4009 ft 153 kts 270°
2026-05-07 03:31 33.42855 -111.81891 3947 ft 150 kts 271°
2026-05-07 03:31 33.42858 -111.83125 3810 ft 150 kts 270°
2026-05-07 03:31 33.42855 -111.84368 3634 ft 148 kts 266°
2026-05-07 03:31 33.42833 -111.85605 3442 ft 148 kts 272°
2026-05-07 03:32 33.42852 -111.86845 3241 ft 146 kts 271°
2026-05-07 03:32 33.42862 -111.88051 3064 ft 146 kts 271°
2026-05-07 03:32 33.42867 -111.89268 2867 ft 145 kts 271°
2026-05-07 03:32 33.42871 -111.90467 2707 ft 142 kts 270°
2026-05-07 03:33 33.42879 -111.91648 2503 ft 141 kts 270°
2026-05-07 03:33 33.42899 -111.92812 2265 ft 139 kts 270°
2026-05-07 03:33 33.42891 -111.93977 1982 ft 143 kts 269°
2026-05-07 03:33 33.42886 -111.95213 1995 ft 148 kts 269°
2026-05-07 03:34 33.42881 -111.96443 1851 ft 145 kts 269°
2026-05-07 03:34 33.42876 -111.97627 1625 ft 141 kts 268°
2026-05-07 03:34 33.42901 -111.98786 1436 ft 137 kts 271°
2026-05-07 03:34 33.42899 -111.99940 1201 ft 137 kts 265°
2026-05-07 03:35 33.42880 -112.01020 1133 ft 112 kts 270°
2026-05-07 03:35 33.42881 -112.01609 1131 ft 17 kts 284°
2026-05-07 03:35 33.42961 -112.01658 1132 ft 9 kts 344°
2026-05-07 03:35 33.42974 -112.01666 1131 ft 0 kts 331°
2026-05-07 03:36 33.42976 -112.01667 1130 ft 0 kts 330°
2026-05-07 03:36 33.42978 -112.01668 1132 ft 3 kts 338°
2026-05-07 03:37 33.43081 -112.01570 1126 ft 28 kts 39°
2026-05-07 03:37 33.43130 -112.01355 1128 ft 28 kts 72°
2026-05-07 03:37 33.43213 -112.01232 1134 ft 15 kts 50°
2026-05-07 03:37 33.43289 -112.01157 1130 ft 13 kts 43°
2026-05-07 03:38 33.43358 -112.01104 1134 ft 11 kts 19°
2026-05-07 03:38 33.43372 -112.01098 1130 ft 0 kts 17°